CZ-6A DEB, 54325

Orbit data source: Space-Track

CZ-6A DEB, 54325 is space debris in SSO originally from a launch on Fri, 11 Nov 2022 UTC launched from the Taiyaun Space Center, China (TSC). Debris objects in space refer to the collection of defunct objects orbiting the Earth. Examples of debris include non-operational satellites, rocket bodies, and fragments generated from explosions, collisions, or faulty payload assembly.

Loading next visibility...
Identifier
54325, 2022-151BU
Orbit
SSO
Country
Flag of CNCN / PRC
Related business
Manufacturer
SAST
Mission
Spacecraft
Bus & Motor
Unknown
Mass
Unknown
Launch date (UTC)
2022-11-11 (4 years ago)
Launch vehicle
Unknown
Launch site
Taiyaun Space Center, China (TSC)
Object type
Payload
Rocket body
Debris
Shape & HBR
Unknown shape, 0.1 m
Radar Cross Section
Medium (>0.1 m² and <1 m²)

Expand to show TLE details & history
Last TLE update: 3 days ago

TLE from 3 days ago
0 CZ-6A DEB
1 54325U 22151BU  26170.92137064  .00000175  00000-0  11618-3 0  9991
2 54325  98.8047 172.8040 0031941 323.4204  36.4787 14.13419117185231
Epoch: 2026-06-19T22:06Z
TLE epoch observation values (Epoch: 2026-06-19T22:06:46.423Z)
Latitude
-0.00004°
Longitude
-67.03283°
Altitude
832.062 km
Speed
7.446 km/s
True Right ascension
11h 31m 12s
True Declination
0° 00' 00"
Sunlit
Object was in daylight at epoch
Visualization orbit readout
Latitude
Unknown
Longitude
Unknown
Altitude
Unknown
Speed
Unknown
Apparent Right ascension
Unknown
Apparent Declination
Unknown
Sunlit
N/A
Visualization observer readout
Local Sidereal Time
21:33:57
Azimuth
Unknown
Elevation
Unknown
Doppler factor
Unknown
Orbital elements
Apogee altitude
867.938 km
Perigee altitude
821.796 km
Semi-major axis
7,223.004 km
Eccentricity
0.00319
Inclination
98.8047°
RAAN
172.804°
Arg. of periapsis
323.4204°
True anomaly
36.69701°
Mean anomaly
36.4787°
Eccentric anomaly
36.58778°
Mean motion
3.53563 °/min
Orbital period
101.82 mins
BSTAR
0.00011618
Loading maneuver chart data...
Computing Atmospheric mass density...
Loading historical data...
Loading historical data...
Loading historical data...
Loading historical data...
Loading historical data...
Loading historical data...
Loading historical data...

Documentation

Showing up to 5 results
|